Flag for Canada

Past Weather in Ajax, Ontario, Canada — Yesterday and Last 2 Weeks

Now
84 °F

Sunny.


Feels Like: 83 °F
Forecast: 85 / 67 °F
Wind: 6 mph from South

Location: Toronto Island Airport

Current Time: Jul 5, 2020 at 5:26:42 pm

Latest Report: Jul 5, 2020 at 4:00 pm


Visibility: 9 mi

Pressure: 29.94 "Hg

Humidity: 40%

Dew Point: 57 °F

Location of AjaxLocation

Past Weather in Ajax — Graph

°F

Ajax Temperature Yesterday

Maximum temperature yesterday: 81 °F (at 10:00 am)
Minimum temperature yesterday: 73 °F (at 6:00 am)
Average temperature yesterday: 77 °F

High & Low Weather Summary for the Past Weeks

 TemperatureHumidityPressure
High93 °F (Jul 2, 4:00 pm)100% (Jun 23, 2:46 pm)30.03 "Hg (Jun 23, 2:46 pm)
Low52 °F (Jun 24, 10:00 pm)30% (Jul 2, 6:00 pm)29.50 "Hg (Jun 23, 6:00 pm)
Average72 °F72%29.84 "Hg
* Reported Jun 20 4:00 pm — Jul 5 4:00 pm, Ajax. Weather by CustomWeather, © 2020

Note: Actual official high and low records may vary slightly from our data, if they occured in-between our weather recording intervals... More about our weather records

Ajax Weather History for the Previous 24 Hours

Scroll right to see more
 ConditionsComfort  
Time TempWeatherWind HumidityBarometerVisibility
4:00 pm
Sun, Jul 5
84 °FSunny.6 mph40%29.94 "Hg9 mi
3:00 pm81 °FSunny.5 mph51%29.96 "Hg9 mi
2:00 pm79 °FSunny.3 mph51%29.97 "Hg9 mi
1:00 pm79 °FSunny.3 mph39%29.98 "Hg9 mi
12:00 pm77 °FSunny.3 mph44%29.98 "Hg9 mi
11:00 am75 °FSunny.5 mph50%29.99 "Hg9 mi
10:00 am73 °FSunny.5 mph57%29.99 "Hg8 mi
8:00 am70 °FSunny.3 mph64%29.99 "Hg9 mi
7:00 am66 °FSunny.3 mph73%29.98 "Hg9 mi
6:00 am66 °FSunny.No wind60%29.98 "Hg9 mi
5:00 am63 °FClear.3 mph73%29.98 "Hg9 mi
4:00 am66 °FClear.3 mph60%29.97 "Hg9 mi
3:00 am64 °FClear.8 mph64%29.97 "Hg9 mi
2:00 am66 °FClear.8 mph64%29.97 "Hg9 mi
1:00 am68 °FClear.3 mph60%29.97 "Hg9 mi
12:00 am72 °FClear.3 mph50%29.97 "Hg9 mi
11:00 pm
Sat, Jul 4
77 °FClear.5 mph42%29.97 "Hg9 mi
10:00 pm73 °FClear.2 mph53%29.96 "Hg9 mi
9:00 pm77 °FSunny.2 mph44%29.94 "Hg9 mi
8:00 pm77 °FSunny.No wind47%29.94 "Hg9 mi
7:00 pm77 °FSunny.3 mph61%29.94 "Hg9 mi
6:00 pm77 °FSunny.3 mph65%29.95 "Hg9 mi
5:00 pm77 °FSunny.7 mph65%29.97 "Hg9 mi
Weather by CustomWeather, © 2020

See weather overview